Location: Sternwarte ZA, Rosenfeld-Brittheim
(48.2889°N, 8.6789°E)
Time: 17:29:56
(UTC+02:00)

ISS - Pass Details

Date: 21 May 2018
Orbit: 402 x 407 km, 51.6° (Epoch: 27 May)

Event Time Altitude Azimuth Distance (km) Brightness Sun altitude
Rises 03:56:03 0° 292° (WNW) 2,321 -0.1 -13.4°
Reaches altitude 10° 03:58:08 10° 289° (WNW) 1,459 -1.2 -13.2°
Maximum altitude 04:01:23 65° 208° (SSW) 446 -3.9 -12.8°
Drops below altitude 10° 04:04:37 10° 125° (SE) 1,453 -1.0 -12.5°
Sets 04:06:41 0° 122° (ESE) 2,310 0.1 -12.3°
